GW3813 Weather Reports


time (UTC)temp
F
wind
direction
speed
knots
gust
knots
rain 1hr
in
rain 24hr
in
rain mn
in
humidity
%
barometer
mb
20260906202525 93 152 14.8 20.9 0.00 0.04 0.04 38 1016.3
20260906202023 93 142 13.0 23.5 0.00 0.04 0.04 39 1016.4
20260906201555 93 163 15.6 23.5 0.00 0.04 0.04 39 1016.6
20260906201023 93 149 17.4 27.8 0.00 0.04 0.04 39 1016.6
20260906200526 94 163 16.5 27.8 0.00 0.04 0.04 39 1016.7
20260906200052 93 141 15.6 20.0 0.00 0.04 0.04 40 1016.9
20260906195523 93 133 14.8 22.6 0.00 0.04 0.04 39 1017.1
20260906195024 92 127 12.2 22.6 0.00 0.04 0.04 41 1017.1
20260906194547 92 136 12.2 23.5 0.00 0.04 0.04 41 1017.1
20260906194023 92 116 15.6 23.5 0.00 0.04 0.04 41 1017.3
20260906193529 92 134 14.8 20.9 0.00 0.04 0.04 41 1017.4
20260906193042 92 112 13.0 20.0 0.00 0.04 0.04 42 1017.5
20260906192524 91 138 13.9 21.7 0.00 0.04 0.04 42 1017.6
20260906192025 91 134 13.9 21.7 0.00 0.04 0.04 43 1017.6
20260906191603 90 122 12.2 20.9 0.00 0.04 0.04 44 1017.6
20260906191023 91 147 13.9 20.0 0.00 0.04 0.04 43 1017.7
20260906190524 91 109 14.8 20.9 0.00 0.04 0.04 43 1017.8
20260906190054 90 140 13.9 21.7 0.00 0.04 0.04 43 1017.9
20260906185523 90 133 13.9 21.7 0.00 0.04 0.04 44 1018.0
20260906185027 90 134 12.2 20.9 0.00 0.04 0.04 44 1018.2
20260906184551 90 115 13.9 20.0 0.00 0.04 0.04 44 1018.1
20260906184033 90 108 13.0 21.7 0.00 0.04 0.04 44 1018.3
20260906183524 89 104 12.2 21.7 0.00 0.04 0.04 46 1018.3
20260906183043 88 109 13.9 20.9 0.00 0.04 0.04 46 1018.5
20260906182525 88 123 14.8 21.7 0.00 0.04 0.04 46 1018.4
20260906182026 88 107 14.8 21.7 0.00 0.04 0.04 46 1018.5
20260906181553 88 113 15.6 20.9 0.00 0.04 0.04 47 1018.5
20260906181024 87 105 15.6 20.9 0.00 0.04 0.04 47 1018.8
20260906180524 87 98 14.8 20.0 0.00 0.04 0.04 49 1018.8
20260906180107 87 103 15.6 23.5 0.00 0.04 0.04 50 1018.9
20260906175525 86 105 15.6 23.5 0.00 0.04 0.04 52 1018.9
20260906175023 85 92 17.4 22.6 0.00 0.04 0.04 52 1019.0
20260906174557 85 109 13.9 20.0 0.00 0.04 0.04 54 1019.2
20260906174024 83 92 15.6 21.7 0.00 0.04 0.04 56 1019.3
20260906173529 83 91 15.6 22.6 0.00 0.04 0.04 57 1019.3
20260906173042 83 97 15.6 22.6 0.00 0.04 0.04 59 1019.7
20260906172524 82 77 16.5 23.5 0.00 0.04 0.04 60 1019.7
20260906172025 82 82 17.4 22.6 0.00 0.04 0.04 60 1019.5
20260906171554 81 88 15.6 21.7 0.00 0.04 0.04 61 1019.6
20260906171024 81 86 15.6 20.0 0.00 0.04 0.04 61 1020.0
20260906170524 81 82 16.5 19.1 0.00 0.04 0.04 61 1020.1
20260906170049 81 63 13.9 20.9 0.00 0.04 0.04 62 1020.3
20260906165523 81 80 14.8 21.7 0.00 0.04 0.04 62 1020.3
20260906165023 82 84 16.5 21.7 0.00 0.04 0.04 61 1020.0
20260906164547 81 84 15.6 21.7 0.00 0.04 0.04 62 1020.4
20260906164023 80 71 16.5 21.7 0.00 0.04 0.04 65 1020.4
20260906163523 80 75 14.8 20.0 0.00 0.04 0.04 66 1020.4
20260906163051 80 66 13.9 20.0 0.00 0.04 0.04 66 1020.4
20260906162524 79 70 13.9 20.0 0.00 0.04 0.04 68 1020.3
20260906162023 79 76 14.8 19.1 0.00 0.04 0.04 68 1020.3
20260906161553 78 78 12.2 19.1 0.00 0.04 0.04 70 1020.3
20260906161027 78 55 12.2 17.4 0.00 0.04 0.04 71 1020.3
20260906160524 77 68 13.0 20.0 0.00 0.04 0.04 71 1020.3
20260906160052 77 64 14.8 20.0 0.04 0.04 0.04 71 1020.5
20260906155524 77 64 13.0 19.1 0.04 0.04 0.04 71 1020.3
20260906155023 77 68 13.9 20.9 0.04 0.04 0.04 72 1020.4
20260906154551 77 58 13.9 20.9 0.04 0.04 0.04 72 1020.4
20260906154023 77 30 12.2 16.5 0.04 0.04 0.04 72 1020.4
20260906153524 76 58 11.3 16.5 0.04 0.04 0.04 73 1020.7
20260906153112 76 51 11.3 14.8 0.04 0.04 0.04 73 1020.7
20260906152524 76 55 9.6 14.8 0.04 0.04 0.04 73 1020.6
20260906152024 75 57 11.3 14.8 0.04 0.04 0.04 73 1020.6
20260906151600 75 49 9.6 16.5 0.04 0.04 0.04 72 1020.3
20260906151024 76 59 11.3 16.5 0.04 0.04 0.04 70 1020.4
20260906150524 77 46 10.4 13.9 0.04 0.04 0.04 67 1020.1
20260906150052 78 44 9.6 14.8 0.00 0.00 0.00 63 1020.2
20260906145525 78 51 11.3 14.8 0.00 0.00 0.00 63 1020.2
20260906145023 78 22 7.8 12.2 0.00 0.00 0.00 62 1020.1
20260906144545 78 53 7.8 10.4 0.00 0.00 0.00 62 1019.7
20260906144024 78 88 7.0 10.4 0.00 0.00 0.00 62 1019.6
20260906143524 78 97 7.8 10.4 0.00 0.00 0.00 63 1019.4
20260906143047 78 108 7.0 10.4 0.00 0.00 0.00 65 1019.3
20260906142521 77 119 6.1 9.6 0.00 0.00 0.00 67 1019.3
20260906142026 77 113 7.0 9.6 0.00 0.00 0.00 68 1019.2
20260906141553 76 121 6.1 8.7 0.00 0.00 0.00 70 1019.2
20260906141024 76 121 6.1 7.8 0.00 0.00 0.00 71 1019.3
20260906140525 75 111 6.1 7.8 0.00 0.00 0.00 72 1019.2
20260906140047 75 114 5.2 7.8 0.00 0.00 0.00 73 1019.2
20260906135528 75 113 5.2 7.8 0.00 0.00 0.00 74 1019.1
20260906135023 74 121 5.2 8.7 0.00 0.00 0.00 74 1019.1
20260906134606 74 123 5.2 8.7 0.00 0.00 0.00 75 1018.9
20260906134023 74 128 6.1 8.7 0.00 0.00 0.00 75 1018.9
20260906133525 73 117 6.1 8.7 0.00 0.00 0.00 76 1018.8
20260906133056 72 110 6.1 8.7 0.00 0.00 0.00 78 1018.7
20260906132524 72 105 5.2 7.0 0.00 0.00 0.00 79 1018.6
20260906132024 71 112 3.5 6.1 0.00 0.00 0.00 79 1018.7
20260906131555 71 114 2.6 6.1 0.00 0.00 0.00 80 1018.6
20260906131025 70 116 3.5 6.1 0.00 0.00 0.00 80 1018.5
20260906130524 70 106 4.3 6.1 0.00 0.00 0.00 80 1018.4
20260906130049 70 106 4.3 6.1 0.00 0.00 0.00 80 1018.4
20260906125525 70 121 2.6 5.2 0.00 0.00 0.00 81 1018.4
20260906125026 69 121 2.6 5.2 0.00 0.00 0.00 81 1018.2
20260906124544 69 121 3.5 6.1 0.00 0.00 0.00 81 1018.1
20260906124025 69 122 3.5 6.1 0.00 0.00 0.00 81 1018.0
20260906123525 69 113 3.5 5.2 0.00 0.00 0.00 81 1017.9
20260906123058 69 113 3.5 5.2 0.00 0.00 0.00 81 1017.9
20260906122524 69 113 3.5 5.2 0.00 0.00 0.00 81 1017.8
20260906122024 69 114 2.6 5.2 0.00 0.00 0.00 80 1017.8
20260906121552 69 114 2.6 5.2 0.00 0.00 0.00 81 1017.7
20260906121025 70 114 3.5 6.1 0.00 0.00 0.00 81 1017.6
20260906120524 70 114 2.6 6.1 0.00 0.00 0.00 81 1017.6
20260906120051 69 114 4.3 6.1 0.00 0.00 0.00 81 1017.6
20260906115523 69 111 4.3 6.1 0.00 0.00 0.00 81 1017.5
20260906115024 69 112 4.3 6.1 0.00 0.00 0.00 81 1017.5
20260906114555 69 115 4.3 6.1 0.00 0.00 0.00 81 1017.6
20260906114025 69 119 3.5 5.2 0.00 0.00 0.00 80 1017.6
20260906113524 70 131 2.6 4.3 0.00 0.00 0.00 80 1017.5
20260906113044 70 136 1.7 6.1 0.00 0.00 0.00 80 1017.5
20260906112529 70 136 1.7 6.1 0.00 0.00 0.00 79 1017.4
20260906112023 70 136 4.3 6.1 0.00 0.00 0.00 79 1017.3
20260906111552 70 136 2.6 6.1 0.00 0.00 0.00 79 1017.3
20260906111024 70 136 3.5 6.1 0.00 0.00 0.00 79 1017.4
20260906110524 71 135 4.3 6.1 0.00 0.00 0.00 79 1017.4
20260906110053 71 136 3.5 4.3 0.00 0.00 0.00 79 1017.4
20260906105524 71 136 3.5 4.3 0.00 0.00 0.00 78 1017.3
20260906105024 71 136 2.6 5.2 0.00 0.00 0.00 78 1017.3
20260906104545 71 119 2.6 6.1 0.00 0.00 0.00 78 1017.1
20260906104026 71 119 3.5 6.1 0.00 0.00 0.00 78 1017.2
20260906103524 71 120 4.3 6.1 0.00 0.00 0.00 78 1017.1
20260906103103 71 135 3.5 4.3 0.00 0.00 0.00 78 1017.1
20260906102523 71 146 2.6 3.5 0.00 0.00 0.00 78 1017.1
20260906102026 71 146 1.7 2.6 0.00 0.00 0.00 78 1017.1
20260906101554 71 146 0.9 2.6 0.00 0.00 0.00 78 1017.0
20260906101023 71 146 0.9 2.6 0.00 0.00 0.00 77 1017.1
20260906100524 71 146 0.9 3.5 0.00 0.00 0.00 77 1017.1
20260906100046 71 146 1.7 3.5 0.00 0.00 0.00 77 1017.1
20260906095524 71 146 1.7 4.3 0.00 0.00 0.00 77 1017.0
20260906095024 72 146 2.6 6.1 0.00 0.00 0.00 77 1017.0
20260906094553 72 144 2.6 6.1 0.00 0.00 0.00 76 1017.0
20260906094024 72 144 3.5 6.1 0.00 0.00 0.00 76 1017.1
20260906093527 72 144 3.5 6.1 0.00 0.00 0.00 76 1017.0
20260906093059 72 144 3.5 6.1 0.00 0.00 0.00 75 1017.2
20260906092524 72 144 4.3 6.1 0.00 0.00 0.00 75 1017.1
20260906092031 73 146 3.5 6.1 0.00 0.00 0.00 75 1017.1
20260906091553 73 146 3.5 6.1 0.00 0.00 0.00 74 1017.0
20260906091024 73 146 3.5 6.1 0.00 0.00 0.00 74 1017.1
20260906090523 73 146 3.5 6.1 0.00 0.00 0.00 74 1017.1
20260906090101 73 135 3.5 5.2 0.00 0.00 0.00 73 1017.1
20260906085524 74 135 3.5 5.2 0.00 0.00 0.00 72 1017.2
20260906085023 74 168 2.6 6.1 0.00 0.00 0.00 72 1017.2
20260906084542 74 168 2.6 6.1 0.00 0.00 0.00 72 1017.1
20260906084022 74 168 3.5 5.2 0.00 0.00 0.00 72 1017.2
20260906083524 74 168 4.3 5.2 0.00 0.00 0.00 72 1017.3
20260906083052 74 178 3.5 5.2 0.00 0.00 0.00 72 1017.1
20260906082524 74 190 3.5 5.2 0.00 0.00 0.00 71 1017.1
20260906082027 74 188 2.6 4.3 0.00 0.00 0.00 71 1017.2
20260906081554 75 188 1.7 4.3 0.00 0.00 0.00 70 1017.2
20260906081024 75 188 2.6 4.3 0.00 0.00 0.00 70 1017.3
20260906080524 75 188 2.6 4.3 0.00 0.00 0.00 70 1017.4
20260906080055 75 188 2.6 5.2 0.00 0.00 0.00 69 1017.5
20260906075524 75 188 3.5 5.2 0.00 0.00 0.00 69 1017.5
20260906075026 75 183 3.5 5.2 0.00 0.00 0.00 70 1017.5
20260906074553 75 167 3.5 4.3 0.00 0.00 0.00 69 1017.6
20260906074024 75 167 2.6 3.5 0.00 0.00 0.00 69 1017.6
20260906073523 75 167 0.9 2.6 0.00 0.00 0.00 68 1017.6
20260906073106 75 167 1.7 2.6 0.00 0.00 0.00 68 1017.6
20260906072524 75 167 1.7 4.3 0.00 0.00 0.00 68 1017.4
20260906072027 75 166 2.6 5.2 0.00 0.00 0.00 68 1017.4
20260906071552 75 166 3.5 5.2 0.00 0.00 0.00 68 1017.3
20260906071026 75 166 3.5 5.2 0.00 0.00 0.00 69 1017.3
20260906070524 75 167 3.5 5.2 0.00 0.00 0.00 69 1017.4
20260906070050 75 166 3.5 7.0 0.00 0.00 0.00 69 1017.5
20260906065523 75 166 5.2 7.0 0.00 0.00 0.00 70 1017.6
20260906065025 75 155 2.6 5.2 0.00 0.00 0.00 70 1017.5
20260906064543 75 136 2.6 3.5 0.00 0.00 0.00 69 1017.6
20260906064027 75 136 1.7 3.5 0.00 0.00 0.00 69 1017.5
20260906063526 75 135 1.7 6.1 0.00 0.00 0.00 68 1017.6
20260906063054 75 135 2.6 6.1 0.00 0.00 0.00 68 1017.6
20260906062523 75 135 3.5 6.1 0.00 0.00 0.00 69 1017.6
20260906062023 75 186 2.6 6.1 0.00 0.00 0.00 69 1017.7
20260906061552 75 186 3.5 7.8 0.00 0.00 0.00 69 1017.7
20260906061024 75 157 5.2 7.8 0.00 0.00 0.00 68 1017.7
20260906060523 75 137 4.3 7.0 0.00 0.00 0.00 68 1017.7
20260906060049 75 148 4.3 7.8 0.00 0.00 0.00 68 1017.6
20260906055526 75 148 5.2 7.8 0.00 0.00 0.00 68 1017.7
20260906055024 75 144 6.1 8.7 0.00 0.00 0.00 68 1017.6
20260906054544 75 132 6.1 8.7 0.00 0.00 0.00 67 1017.4
20260906054024 75 142 5.2 7.8 0.00 0.00 0.00 67 1017.3
20260906053523 75 128 5.2 7.8 0.00 0.00 0.00 68 1017.4
20260906053054 75 130 5.2 7.0 0.00 0.00 0.00 67 1017.3
20260906052528 75 123 4.3 6.1 0.00 0.00 0.00 67 1017.1
20260906052024 75 123 3.5 6.1 0.00 0.00 0.00 67 1017.1
20260906051601 75 132 3.5 7.0 0.00 0.00 0.00 67 1017.1
20260906051024 75 136 3.5 7.0 0.00 0.00 0.00 67 1017.0
20260906050523 75 133 4.3 7.8 0.00 0.00 0.00 66 1016.9
20260906045526 75 146 6.1 8.7 0.00 0.00 0.00 65 1016.7
20260906045024 75 134 5.2 7.8 0.00 0.00 0.00 66 1016.6
20260906044555 75 130 5.2 7.0 0.00 0.00 0.00 65 1016.5
20260906044025 75 134 5.2 7.0 0.00 0.00 0.00 65 1016.6
20260906043527 76 128 4.3 7.0 0.00 0.00 0.00 65 1016.6
20260906043058 76 122 3.5 6.1 0.00 0.00 0.00 64 1016.5
20260906042523 76 123 4.3 7.8 0.00 0.00 0.00 64 1016.6
20260906042024 76 115 4.3 7.8 0.00 0.00 0.00 63 1016.5
20260906041549 77 115 6.1 8.7 0.00 0.00 0.00 63 1016.4
20260906041025 77 120 6.1 7.8 0.00 0.00 0.00 63 1016.5
20260906040524 77 111 5.2 7.0 0.00 0.00 0.00 63 1016.5
20260906040048 77 112 5.2 7.0 0.00 0.00 0.00 62 1016.6
20260906035525 78 121 4.3 7.0 0.00 0.00 0.00 62 1016.7
20260906035023 78 132 5.2 7.0 0.00 0.00 0.00 62 1016.7
20260906034617 78 128 4.3 7.8 0.00 0.00 0.00 61 1016.6
20260906034028 78 126 5.2 7.8 0.00 0.00 0.00 61 1016.5
20260906033524 78 134 5.2 8.7 0.00 0.00 0.00 60 1016.5
20260906033054 78 130 5.2 8.7 0.00 0.00 0.00 60 1016.4
20260906032523 79 132 6.1 8.7 0.00 0.00 0.00 60 1016.4
20260906032025 79 128 6.1 9.6 0.00 0.00 0.00 59 1016.5
20260906031552 79 121 6.1 9.6 0.00 0.00 0.00 59 1016.6
20260906031024 79 123 6.1 10.4 0.00 0.00 0.00 58 1016.5
20260906030526 79 129 7.0 10.4 0.00 0.00 0.00 58 1016.3
20260906030055 79 138 7.8 12.2 0.00 0.00 0.00 58 1016.4
20260906025526 79 138 8.7 13.9 0.00 0.00 0.00 58 1016.3
20260906025025 79 128 9.6 13.9 0.00 0.00 0.00 58 1016.4
20260906024553 80 132 9.6 15.6 0.00 0.00 0.00 59 1016.6
20260906024024 80 114 9.6 15.6 0.00 0.00 0.00 59 1016.6
20260906023525 80 131 11.3 13.9 0.00 0.00 0.00 59 1016.5
20260906023050 80 134 9.6 15.6 0.00 0.00 0.00 59 1016.2
20260906022528 80 129 10.4 17.4 0.00 0.00 0.00 59 1016.3
20260906022024 80 109 13.0 17.4 0.00 0.00 0.00 58 1016.3
20260906021553 80 119 12.2 15.6 0.00 0.00 0.00 58 1016.2
20260906021024 81 119 11.3 15.6 0.00 0.00 0.00 58 1016.0
20260906020524 81 131 11.3 15.6 0.00 0.00 0.00 58 1016.0
20260906020059 81 106 12.2 16.5 0.00 0.00 0.00 58 1016.0
20260906015527 81 109 11.3 16.5 0.00 0.00 0.00 58 1015.9
20260906015025 81 116 11.3 16.5 0.00 0.00 0.00 58 1015.7
20260906014547 81 105 13.0 16.5 0.00 0.00 0.00 58 1015.5
20260906014038 81 119 12.2 20.0 0.00 0.00 0.00 58 1015.3
20260906013525 81 127 13.0 20.0 0.00 0.00 0.00 58 1015.2
20260906013100 82 110 13.9 20.0 0.00 0.00 0.00 57 1015.1
20260906012523 82 104 13.0 17.4 0.00 0.00 0.00 55 1015.2
20260906012023 83 115 12.2 16.5 0.00 0.00 0.00 55 1015.2
20260906011555 83 105 12.2 16.5 0.00 0.00 0.00 54 1015.2
20260906011027 83 103 10.4 16.5 0.00 0.00 0.00 53 1015.4
20260906010527 84 108 11.3 16.5 0.00 0.00 0.00 52 1015.4
20260906010055 84 99 11.3 16.5 0.00 0.00 0.00 51 1015.5
20260906005523 85 110 13.0 20.9 0.00 0.00 0.00 50 1015.5
20260906005025 85 104 13.9 20.9 0.00 0.00 0.00 49 1015.6
20260906004548 86 94 14.8 20.0 0.00 0.00 0.00 48 1015.7
20260906004027 87 92 13.0 19.1 0.00 0.00 0.00 47 1015.6
20260906003524 87 93 13.9 20.0 0.00 0.00 0.00 46 1015.3
20260906003046 88 89 13.9 20.0 0.00 0.00 0.00 46 1015.4
20260906002522 89 94 11.3 17.4 0.00 0.00 0.00 44 1015.4
20260906002024 91 90 13.0 17.4 0.00 0.00 0.00 42 1015.5
20260906001553 93 132 7.0 10.4 0.00 0.00 0.00 40 1015.6
20260906001024 93 153 7.8 12.2 0.00 0.00 0.00 39 1015.4
20260906000525 94 150 7.8 13.9 0.00 0.00 0.00 38 1015.3
20260906000104 94 143 9.6 13.9 0.00 0.00 0.00 38 1015.2
20260905235525 95 149 7.8 12.2 0.00 0.00 0.00 37 1015.3
20260905235024 95 138 8.7 11.3 0.00 0.00 0.00 35 1015.1
20260905234556 95 148 7.8 10.4 0.00 0.00 0.00 35 1015.2
20260905234025 95 154 8.7 10.4 0.00 0.00 0.00 35 1015.2
20260905233527 95 136 7.8 12.2 0.00 0.00 0.00 36 1015.3
20260905233045 95 142 7.8 12.2 0.00 0.00 0.00 36 1015.3
20260905232524 95 150 7.8 12.2 0.00 0.00 0.00 37 1015.3
20260905232024 95 140 7.0 13.0 0.00 0.00 0.00 37 1015.1
20260905231555 95 148 7.8 13.0 0.00 0.00 0.00 36 1015.1
20260905231025 95 150 9.6 14.8 0.00 0.00 0.00 36 1015.0
20260905230525 95 167 9.6 14.8 0.00 0.00 0.00 36 1014.9
20260905225526 95 178 9.6 17.4 0.00 0.00 0.00 36 1014.8
20260905225023 95 178 13.0 17.4 0.00 0.00 0.00 36 1014.5
20260905224542 95 164 12.2 20.0 0.00 0.00 0.00 36 1014.5
20260905224024 95 171 12.2 20.0 0.00 0.00 0.00 36 1014.5
20260905223523 96 196 11.3 19.1 0.00 0.00 0.00 36 1014.5
20260905223055 96 159 13.9 19.1 0.00 0.00 0.00 35 1014.5
20260905222530 96 200 10.4 18.2 0.00 0.00 0.00 36 1014.5
20260905222024 97 182 12.2 19.1 0.00 0.00 0.00 34 1014.4
20260905221551 97 163 13.9 20.0 0.00 0.00 0.00 34 1014.4
20260905221030 97 161 13.9 20.0 0.00 0.00 0.00 34 1014.5
20260905220528 98 140 11.3 17.4 0.00 0.00 0.00 33 1014.5
20260905220051 98 156 11.3 22.6 0.00 0.00 0.00 33 1014.5
20260905215526 98 157 12.2 23.5 0.00 0.00 0.00 33 1014.4
20260905215025 98 196 13.0 23.5 0.00 0.00 0.00 33 1014.3
20260905214553 97 174 10.4 19.1 0.00 0.00 0.00 34 1014.5
20260905214024 97 128 13.9 19.1 0.00 0.00 0.00 33 1014.4
20260905213525 97 130 11.3 15.6 0.00 0.00 0.00 34 1014.5
20260905213052 97 135 11.3 15.6 0.00 0.00 0.00 35 1014.5
20260905212526 96 148 9.6 25.2 0.00 0.00 0.00 34 1014.5
20260905212024 97 178 12.2 25.2 0.00 0.00 0.00 33 1014.6
20260905211551 98 166 13.9 22.6 0.00 0.00 0.00 33 1014.7
20260905211024 97 205 11.3 16.5 0.00 0.00 0.00 34 1014.8
20260905210523 97 123 10.4 16.5 0.00 0.00 0.00 34 1015.0
20260905210057 97 118 11.3 17.4 0.00 0.00 0.00 35 1015.0
20260905205528 96 169 9.6 17.4 0.00 0.00 0.00 35 1015.2
20260905205023 96 148 12.2 16.5 0.00 0.00 0.00 35 1015.3
20260905204555 96 153 8.7 15.6 0.00 0.00 0.00 35 1015.5
20260905204024 96 146 9.6 15.6 0.00 0.00 0.00 36 1015.6
20260905203529 95 166 9.6 17.4 0.00 0.00 0.00 35 1015.6
20260905203106 95 165 10.4 17.4 0.00 0.00 0.00 35 1015.7